Flag for U.S.A. Weather past 2 weeks in Springfield, Missouri, U.S.A.

Now
72 °F

Clear.


Feels Like: 70 °F
Forecast: 68 / 86 °F
Wind: 6 mph from Southeast

Location: Springfield Regional Airport

Current Time: Jul 5, 2015 at 3:05:44 AM

Latest Report: Jul 5, 2015 at 1:52 AM


Visibility: 8 mi

Pressure: 29.99 "Hg

Humidity: 87%

Dew point: 68 °F

Location of SpringfieldLocation

Historic Weather in Springfield — Graph

°F

Springfield temperature yesterday

Maximum temperature yesterday: 86 °F (at 3:52 PM)
Minimum temperature yesterday: 66 °F (at 3:52 AM)
Average temperature yesterday: 75 °F

Past Weeks' High & Low Weather Summary

 TemperatureHumidityPressure
High92 °F (Jun 24, 3:52 PM)97% (Jun 20, 1:02 AM)30.11 "Hg (Jun 20, 1:02 AM)
Low61 °F (Jun 28, 2:52 AM)45% (Jun 20, 6:52 PM)29.75 "Hg (Jul 2, 12:52 AM)
Average77 °F74%29.94 "Hg
* Reported Jun 20 1:02 AM — Jul 5 1:52 AM, Springfield, Weather by CustomWeather, © 2015

Note: Actual official high and low records may vary slightly from our data, if they occured in-between our weather recording intervals... More about our weather records

Advertising

Springfield weather history for previous 24 hours

 ConditionsComfort  
Time TempWeatherWind HumidityBarometerVisibility
1:52 AM
Sun, Jul 5
72 °FClear.6 mph87%29.99 "Hg8 mi
12:52 AM73 °FClear.7 mph84%29.98 "Hg7 mi
11:52 PM
Sat, Jul 4
73 °FClear.8 mph84%29.98 "Hg5 mi
10:52 PM73 °FClear.7 mph84%29.97 "Hg5 mi
9:52 PM74 °FPassing clouds.3 mph85%29.96 "Hg9 mi
8:52 PM77 °FPassing clouds.No wind74%29.93 "Hg9 mi
7:52 PM80 °FScattered clouds.6 mph67%29.92 "Hg9 mi
6:52 PM83 °FPartly sunny.6 mph55%29.92 "Hg10 mi
5:52 PM83 °FSunny.No wind55%29.92 "Hg10 mi
4:52 PM84 °FScattered clouds.5 mph51%29.93 "Hg10 mi
3:52 PM86 °FPartly sunny.5 mph51%29.94 "Hg10 mi
2:52 PM83 °FPartly sunny.No wind51%29.95 "Hg10 mi
1:52 PM82 °FScattered clouds.6 mph56%29.96 "Hg10 mi
12:52 PM81 °FPassing clouds.3 mph56%29.97 "Hg10 mi
11:52 AM80 °FSunny.3 mph60%29.99 "Hg10 mi
10:52 AM77 °FSunny.5 mph62%29.98 "Hg10 mi
9:52 AM77 °FSunny.7 mph64%29.98 "Hg10 mi
8:52 AM74 °FSunny.6 mph71%29.98 "Hg10 mi
7:52 AM69 °FOvercast.3 mph81%29.98 "Hg10 mi
6:52 AM66 °FClear.No wind84%29.96 "Hg10 mi
5:52 AM66 °FPassing clouds.No wind87%29.95 "Hg10 mi
4:52 AM66 °FClear.3 mph87%29.93 "Hg10 mi
3:52 AM66 °FPassing clouds.5 mph90%29.93 "Hg10 mi
Weather by CustomWeather, © 2015

See weather overviewHow to use our weather pages